Voltar ao catálogo

STARLINK-31272

AtivoComunicaçõesVLEO
NORAD 59162·PAYLOAD·🇺🇸 United States

Lançado Mar 4, 2024 de Cape Canaveral Space Force Station

Loading…

Próximas Passagens (próximas 24 horas)

TLE

AtualizadoSource: CelesTrak SupGP

Época: Sep 15, 2026, 03:09 UTC

1 59162C 24044L   26258.13173611  .00045756  00000+0  16571-2 0  2589
2 59162  43.0008 116.9085 0001553 274.8912 357.5996 15.27558880    11

Acompanhe STARLINK-31272 em tempo real com AllMySat

Download on the App Store